Chanute, KS

7:56 PM CDT on April 28, 2017 (GMT -0500)
Chanute Martin Johnson

Weather History for KCNU - October, 2011

Change the Weather History Date:

Monday, October 10, 2011

  Actual Average Record
Temperature  
Mean Temperature 65 °F 60 °F  
Max Temperature 75 °F 71 °F 94 °F (1963)
Min Temperature 54 °F 49 °F 26 °F (1925)
Degree Days  
Heating Degree Days 0 6  
Month to date heating degree days 13 52  
Since 1 July heating degree days 63 99  
Cooling Degree Days 0 1  
Month to date cooling degree days 40 18  
Year to date cooling degree days 2044 1515  
Growing Degree Days 15 (Base 50)    
Moisture  
Dew Point 59 °F    
Average Humidity 77    
Maximum Humidity 100    
Minimum Humidity 53    
Precipitation  
Precipitation 0.26 in 0.12 in 1.81 in (1961)
Month to date precipitation 0.26 1.39  
Year to date precipitation 23.16 35.55  
Sea Level Pressure  
Sea Level Pressure 30.03 in    
Wind  
Wind Speed 5 mph (SSE)    
Max Wind Speed 10 mph    
Max Gust Speed 13 mph    
Visibility 8 miles    
Events Rain    
T = Trace of Precipitation, MM = Missing Value Source: NWS Daily Summary

Daily Weather History Graph

Daily Weather History Graph

Search for Another Location

Airport or City:

Trip Planner

Search our weather history database for the weather conditions in past years. The results will help you decide how hot, cold, wet, or windy it might be!

Date:

Astronomy

Oct. 10, 2011 Rise Set
Actual Time 7:25 AM CDT 6:52 PM CDT
Civil Twilight 6:59 AM CDT 7:18 PM CDT
Nautical Twilight 6:28 AM CDT 7:48 PM CDT
Astronomical Twilight 5:58 AM CDT 8:18 PM CDT
Moon 5:56 PM CDT (10/10) 6:08 AM CDT (10/10)
Length of Visible Light 12h 19m
Length of Day
11h 26m
Waxing Gibbous, 98% of the Moon is Illuminated
Oct 10
Waxing Gibbous
Oct 11
Full
Oct 19
Last Quarter
Oct 26
New
Nov 2
First Quarter

Hourly Weather History & Observations

Time (CDT) Temp. Dew Point Humidity Pressure Visibility Wind Dir Wind Speed Gust Speed Precip Events Conditions
12:52 AM 66.9 °F 54.0 °F 63% 30.04 in 10.0 mi SSE 4.6 mph - N/A   Overcast
1:52 AM 63.0 °F 59.0 °F 87% 30.04 in 10.0 mi WNW 3.5 mph - 0.00 in Rain Light Rain
2:52 AM 62.1 °F 60.1 °F 93% 30.04 in 5.0 mi Calm Calm - 0.03 in Rain Light Rain
3:44 AM 62.6 °F 59.0 °F 88% 30.06 in 2.0 mi South 5.8 mph - 0.11 in Rain Heavy Rain
3:52 AM 62.1 °F 59.0 °F 90% 30.03 in 2.5 mi SSE 8.1 mph - 0.14 in Rain Rain
4:02 AM 62.6 °F 59.0 °F 88% 30.05 in 3.0 mi SE 6.9 mph - 0.03 in Rain Rain
4:52 AM 61.0 °F 60.1 °F 97% 30.03 in 8.0 mi SE 6.9 mph - 0.07 in Rain Light Rain
5:52 AM 61.0 °F 60.1 °F 97% 30.02 in 7.0 mi SE 4.6 mph - 0.01 in   Overcast
6:31 AM 62.6 °F 60.8 °F 94% 30.05 in 7.0 mi SE 5.8 mph - N/A   Overcast
6:41 AM 62.6 °F 60.8 °F 94% 30.05 in 7.0 mi SE 4.6 mph - N/A   Overcast
6:52 AM 62.1 °F 60.1 °F 93% 30.03 in 8.0 mi SE 5.8 mph - N/A   Overcast
7:21 AM 62.6 °F 60.8 °F 94% 30.05 in 6.0 mi SE 6.9 mph - N/A   Overcast
7:52 AM 61.0 °F 60.1 °F 97% 30.04 in 3.0 mi SE 8.1 mph - 0.01 in Rain Light Rain
8:03 AM 60.8 °F 60.8 °F 100% 30.06 in 4.0 mi SE 6.9 mph - 0.00 in   Overcast
8:49 AM 62.6 °F 60.8 °F 94% 30.07 in 3.0 mi SSE 5.8 mph - 0.00 in   Overcast
8:52 AM 62.1 °F 60.1 °F 93% 30.05 in 3.0 mi SE 6.9 mph - 0.00 in Rain Light Rain
9:52 AM 62.6 °F 60.8 °F 94% 30.08 in 7.0 mi South 8.1 mph - N/A   Overcast
10:52 AM 64.0 °F 61.0 °F 90% 30.06 in 6.0 mi South 10.4 mph - N/A   Overcast
11:39 AM 64.4 °F 62.6 °F 94% 30.07 in 7.0 mi South 6.9 mph - N/A   Overcast
11:50 AM 64.4 °F 62.6 °F 94% 30.07 in 6.0 mi South 5.8 mph - N/A   Overcast
11:52 AM 64.9 °F 62.1 °F 90% 30.06 in 6.0 mi SSW 5.8 mph - N/A   Overcast
12:00 PM 64.4 °F 62.6 °F 94% 30.07 in 6.0 mi SSE 5.8 mph - N/A   Overcast
12:13 PM 64.4 °F 60.8 °F 88% 30.07 in 8.0 mi SSE 5.8 mph - N/A   Mostly Cloudy
12:30 PM 66.2 °F 60.8 °F 83% 30.07 in 9.0 mi South 4.6 mph - N/A   Mostly Cloudy
12:38 PM 66.2 °F 60.8 °F 83% 30.07 in 9.0 mi South 4.6 mph - N/A   Mostly Cloudy
12:50 PM 66.2 °F 60.8 °F 83% 30.06 in 10.0 mi Variable 4.6 mph - N/A   Overcast
12:52 PM 68.0 °F 61.0 °F 78% 30.04 in 10.0 mi South 4.6 mph - N/A   Overcast
1:14 PM 69.8 °F 62.6 °F 78% 30.05 in 10.0 mi SSE 4.6 mph - N/A   Overcast
1:48 PM 69.8 °F 60.8 °F 73% 30.03 in 10.0 mi SW 4.6 mph - N/A   Overcast
1:52 PM 69.1 °F 60.1 °F 73% 30.01 in 10.0 mi Calm Calm - N/A   Overcast
2:52 PM 73.0 °F 57.9 °F 59% 29.99 in 10.0 mi Variable 3.5 mph - N/A   Mostly Cloudy
3:52 PM 73.0 °F 55.9 °F 55% 29.98 in 10.0 mi SW 3.5 mph - N/A   Mostly Cloudy
4:52 PM 73.9 °F 55.0 °F 52% 29.96 in 10.0 mi South 5.8 mph - N/A   Mostly Cloudy
5:52 PM 73.0 °F 55.9 °F 55% 29.96 in 10.0 mi SE 6.9 mph - N/A   Scattered Clouds
6:52 PM 66.0 °F 55.9 °F 70% 29.96 in 10.0 mi SSE 5.8 mph - N/A   Clear
7:52 PM 64.0 °F 55.9 °F 75% 29.97 in 10.0 mi South 4.6 mph - N/A   Scattered Clouds
8:52 PM 60.1 °F 55.9 °F 86% 29.98 in 10.0 mi South 5.8 mph - N/A   Clear
9:52 PM 59.0 °F 55.9 °F 90% 29.98 in 10.0 mi South 5.8 mph - N/A   Clear
10:52 PM 57.9 °F 55.0 °F 90% 29.98 in 10.0 mi South 5.8 mph - N/A   Clear
11:52 PM 55.9 °F 54.0 °F 93% 29.98 in 10.0 mi SSW 4.6 mph - N/A   Clear